SQ2CET-13 Weather Reports


time (UTC)temp
C
wind
direction
speed
KPH
gust
KPH
rain 1hr
cm
rain 24hr
cm
rain mn
cm
humidity
%
barometer
mb
20260505163039 10 107 1.6 6.4 0.00 0.00 0.00 91 1012.0
20260505162027 10 68 1.6 6.4 0.00 0.00 0.00 92 1011.8
20260505161112 10 169 1.6 4.8 0.00 0.00 0.00 92 1011.9
20260505160121 10 216 0.0 4.8 0.00 0.00 0.00 92 1012.0
20260505153155 10 128 1.6 4.8 0.00 0.00 0.00 91 1011.9
20260505152029 10 64 1.6 4.8 0.00 0.00 0.00 90 1012.1
20260505151043 11 0.0 3.2 0.00 0.00 0.00 89 1012.2
20260505150106 10 0.0 4.8 0.00 0.00 0.00 88 1012.2
20260505140116 12 0.0 4.8 0.00 0.00 0.00 81 1012.3
20260505130113 12 62 1.6 4.8 0.00 0.00 0.00 79 1012.7
20260505125027 12 56 0.0 3.2 0.00 0.00 0.00 79 1012.9
20260505124052 12 33 1.6 4.8 0.00 0.00 0.00 76 1013.0
20260505123115 13 0.0 3.2 0.00 0.00 0.00 76 1012.9
20260505122036 13 0.0 4.8 0.00 0.00 0.00 76 1012.9
20260505121059 13 91 3.2 6.4 0.00 0.00 0.00 75 1012.6
20260505120019 13 206 1.6 8.0 0.00 0.00 0.00 76 1012.7
20260505115043 13 40 3.2 8.0 0.00 0.00 0.00 75 1012.6
20260505114109 13 52 1.6 6.4 0.00 0.00 0.00 72 1012.5
20260505113106 13 268 1.6 8.0 0.00 0.00 0.00 71 1012.5
20260505112052 15 49 1.6 6.4 0.00 0.00 0.00 68 1012.3
20260505111115 15 36 1.6 8.0 0.00 0.00 0.00 61 1012.2
20260505102044 17 347 1.6 4.8 0.00 0.00 0.00 44 1012.1
20260505101114 17 237 1.6 6.4 0.00 0.00 0.00 46 1012.3
20260505100028 17 228 1.6 6.4 0.00 0.00 0.00 44 1012.2
20260505095052 18 320 1.6 8.0 0.00 0.00 0.00 43 1012.3
20260505094114 18 339 1.6 4.8 0.00 0.00 0.00 42 1012.4
20260505093034 17 328 3.2 8.0 0.00 0.00 0.00 45 1012.5
20260505092059 17 294 1.6 4.8 0.00 0.00 0.00 43 1012.6
20260505091115 18 356 0.0 4.8 0.00 0.00 0.00 42 1012.5
20260505090020 17 258 0.0 4.8 0.00 0.00 0.00 44 1012.5
20260505085035 17 4 1.6 4.8 0.00 0.00 0.00 44 1012.6
20260505084058 18 306 0.0 4.8 0.00 0.00 0.00 42 1012.6
20260505083018 17 39 0.0 1.6 0.00 0.00 0.00 43 1012.6
20260505082043 16 1 1.6 4.8 0.00 0.00 0.00 45 1012.7
20260505081044 16 265 1.6 8.0 0.00 0.00 0.00 48 1012.8
20260505080046 16 231 1.6 4.8 0.00 0.00 0.00 49 1012.8
20260505075107 15 0.0 4.8 0.00 0.00 0.00 54 1012.8
20260505074107 14 208 1.6 4.8 0.00 0.00 0.00 56 1012.7
20260505073029 15 297 1.6 4.8 0.00 0.00 0.00 54 1012.7
20260505072053 13 227 0.0 6.4 0.00 0.00 0.00 57 1012.8
20260505071129 15 215 1.6 4.8 0.00 0.00 0.00 54 1012.8
20260505070027 15 263 1.6 3.2 0.00 0.00 0.00 55 1012.7
20260505065034 15 0.0 1.6 0.00 0.00 0.00 56 1012.7
20260505064051 14 0.0 3.2 0.00 0.00 0.00 59 1012.7
20260505063119 15 0.0 4.8 0.00 0.00 0.00 60 1012.9
20260505062035 13 72 1.6 3.2 0.00 0.00 0.00 66 1013.0
20260505061051 12 238 1.6 4.8 0.00 0.00 0.00 69 1013.1
20260505060114 12 233 1.6 4.8 0.00 0.00 0.00 71 1013.1
20260505055035 11 221 1.6 6.4 0.00 0.00 0.00 74 1013.1
20260505054100 11 265 1.6 6.4 0.00 0.00 0.00 74 1013.2
20260505053021 11 242 1.6 6.4 0.00 0.00 0.00 77 1012.9
20260505052035 10 228 1.6 6.4 0.00 0.00 0.00 78 1012.9
20260505051118 10 224 1.6 8.0 0.00 0.00 0.00 80 1012.8
20260505041114 8 173 1.6 4.8 0.00 0.00 0.00 87 1012.9
20260505040034 9 57 0.0 3.2 0.00 0.00 0.00 89 1013.1
20260505035058 8 40 1.6 3.2 0.00 0.00 0.00 90 1013.1
20260505034019 7 44 1.6 4.8 0.00 0.00 0.00 91 1013.0
20260505033038 7 8 0.0 3.2 0.00 0.00 0.00 91 1013.1
20260505032058 7 339 0.0 3.2 0.00 0.00 0.00 91 1013.1
20260505031018 7 224 1.6 3.2 0.00 0.00 0.00 92 1013.1
20260505030044 7 197 1.6 4.8 0.00 0.00 0.00 92 1013.1
20260505025106 7 210 1.6 4.8 0.00 0.00 0.00 92 1013.1
20260505024026 7 197 1.6 4.8 0.00 0.00 0.00 92 1013.1
20260505023050 7 209 3.2 8.0 0.00 0.00 0.00 92 1013.1
20260505022114 7 0.0 3.2 0.00 0.00 0.00 92 1013.1
20260505021034 7 0.0 1.6 0.00 0.00 0.00 91 1013.1
20260505020058 7 173 0.0 4.8 0.00 0.00 0.00 91 1013.1
20260505015100 7 200 3.2 8.0 0.00 0.00 0.00 91 1013.1
20260505014103 7 211 4.8 11.3 0.00 0.00 0.00 92 1013.1
20260505013106 7 220 6.4 9.7 0.00 0.00 0.00 92 1013.2
20260505012026 7 213 4.8 8.0 0.00 0.00 0.00 91 1013.1
20260505011051 7 229 4.8 9.7 0.00 0.00 0.00 91 1012.9
20260505010134 7 220 8.0 9.7 0.00 0.00 0.00 91 1013.0
20260505005047 8 216 4.8 8.0 0.00 0.00 0.00 90 1013.1
20260505004050 8 237 3.2 8.0 0.00 0.00 0.00 89 1013.0
20260505003135 8 245 3.2 8.0 0.00 0.00 0.00 90 1013.0
20260505002054 8 231 6.4 11.3 0.00 0.00 0.00 90 1013.0
20260505001058 8 225 4.8 11.3 0.00 0.00 0.00 91 1013.1
20260505000018 8 230 4.8 8.0 0.00 0.00 0.00 90 1013.2
20260504235043 8 225 4.8 9.7 0.00 0.00 0.00 91 1013.2
20260504234107 8 228 4.8 8.0 0.00 0.00 0.00 91 1013.3
20260504233027 8 225 4.8 9.7 0.00 0.00 0.00 91 1013.4
20260504232052 8 225 4.8 8.0 0.00 0.00 0.00 91 1013.3
20260504231115 9 227 4.8 8.0 0.00 0.00 0.00 91 1013.5
20260504230035 9 227 3.2 8.0 0.00 0.00 0.00 91 1013.4
20260504225059 9 215 3.2 6.4 0.00 0.00 0.00 91 1013.5
20260504224018 9 224 6.4 9.7 0.00 0.00 0.00 91 1013.6
20260504223042 9 217 4.8 8.0 0.00 0.00 0.00 91 1013.6
20260504222127 10 229 3.2 8.0 0.00 0.00 0.00 91 1013.7
20260504221027 10 234 3.2 8.0 0.00 0.00 0.00 91 1013.8
20260504220050 10 221 4.8 9.7 0.00 0.00 0.00 91 1013.7
20260504215114 10 224 3.2 8.0 0.00 0.00 0.00 91 1013.8
20260504214033 10 232 4.8 9.7 0.00 0.00 0.00 91 1013.8
20260504213119 10 217 4.8 12.9 0.00 0.00 0.00 92 1013.9
20260504212018 10 221 6.4 12.9 0.00 0.00 0.00 91 1013.9
20260504211042 10 236 6.4 14.5 0.00 0.00 0.00 91 1014.0
20260504210107 10 242 6.4 14.5 0.00 0.00 0.00 91 1013.9
20260504205026 10 256 3.2 11.3 0.00 0.00 0.00 90 1013.9
20260504204049 10 234 6.4 14.5 0.00 0.00 0.00 90 1013.9
20260504203113 10 232 6.4 14.5 0.00 0.00 0.00 90 1013.8
20260504202035 10 234 4.8 12.9 0.00 0.00 0.00 90 1013.7
20260504201058 11 238 6.4 14.5 0.00 0.00 0.00 90 1013.9
20260504200018 11 236 6.4 14.5 0.00 0.00 0.00 89 1013.8
20260504195043 11 244 8.0 14.5 0.00 0.00 0.00 89 1013.8
20260504194126 11 235 8.0 12.9 0.00 0.00 0.00 89 1013.8
20260504193047 11 245 6.4 16.1 0.00 0.00 0.00 88 1013.8
20260504192051 11 251 4.8 11.3 0.00 0.00 0.00 88 1013.8
20260504191113 11 250 4.8 11.3 0.00 0.00 0.00 87 1013.7
20260504190037 12 251 4.8 11.3 0.00 0.00 0.00 86 1013.8
20260504185059 12 240 3.2 14.5 0.00 0.00 0.00 86 1013.6
20260504184113 12 247 4.8 14.5 0.00 0.00 0.00 85 1013.7
20260504183034 12 244 4.8 9.7 0.00 0.00 0.00 84 1013.6
20260504182058 12 246 3.2 11.3 0.00 0.00 0.00 83 1013.6
20260504181018 13 239 3.2 9.7 0.00 0.00 0.00 80 1013.5
20260504180042 13 248 4.8 14.5 0.00 0.00 0.00 79 1013.5
20260504175102 14 242 6.4 16.1 0.00 0.00 0.00 77 1013.3
20260504174113 15 239 8.0 16.1 0.00 0.00 0.00 76 1013.2
20260504173032 15 266 6.4 12.9 0.00 0.00 0.00 75 1013.1
20260504172049 15 248 6.4 14.5 0.00 0.00 0.00 74 1013.1
20260504171113 15 249 8.0 19.3 0.00 0.00 0.00 73 1013.2